Terminal Aerodrome Forecast
Issued by NWS Cheyenne, WY

Home | Current Version | Previous Version | Text Only | Print | Product List | Glossary On
Versions: 1 2 3 4 5 6 7 8 9 10 11 12 13 14 15 16 17 18 19 20 21 22 23 24 25 26 27 28 29 30
000
FTUS45 KCYS 240520
TAFCYS
TAF
KCYS 240520Z 2406/2506 16012G24KT P6SM VCTS SCT070 BKN100CB
     FM240900 23008KT P6SM BKN200
     FM241700 15010G17KT P6SM FEW250
     FM242200 14015G24KT P6SM VCTS BKN120CB
     FM250200 16012KT P6SM SCT120=

USA.gov is the U.S. government's official web portal to all federal, state and local government web resources and services.